Location: Unspecified
(0.0000°N, 0.0000°E)
Time: 00:55:52
(UTC+00:00)

Envisat - Pass Details

Date: 02 July 2022
Orbit: 764 x 765 km, 98.2° (Epoch: 28 June)

Event Time Altitude Azimuth Distance (km) Brightness Sun altitude
Rises 03:40:38 0° 25° (NNE) 3,214 6.9 -32.6°
Reaches altitude 10° 03:43:02 10° 32° (NNE) 2,291 6.1 -32.1°
Maximum altitude 03:47:48 42° 102° (ESE) 1,076 4.0 -31.0°
Enters shadow 03:48:13 41° 115° (ESE) 1,091 3.9 -30.9°
